STARLINK-34410

Satellite information

Favourite Embed

Satellite Type and Status

PAYLOADIN ORBIT

Key statistics

Satellite STARLINK-34410 at a glance.

Uptime

30

Days in orbit

Revolutions

≈ 15.4

Per day

Orbit

LEO

Low Earth Orbit

Inclination

53.2

Latest

Satellite identification and parameters

Extended collection of information and parameters for STARLINK-34410.

Object identification

Identified? True

Debris? False

Object name: STARLINK-34410

International designator: 2025-130C

Object number (NORAD): 64440

Object ID (CCSDS): 64440

Country: UNITED STATES OF AMERICA (US)

Current information (Y/N): Y

RCS size: LARGE

Orbital parameters

Period: 93.53 minutes

Inclination: 53.1602 deg

SMA: 6825.388 km

Apoapsis: 447.832 km

Periapsis: 446.673 km

RAAN: 105.8229 deg

Eccentricy: 0.0000849

Argument of periapsis: 74.513 deg

Mean anomaly: 252.6848 deg

Mean motion: 15.39613696 rev/day

Mean motion (dot): -0.0000628 rev/day2

B* drag term: -0.00014719 1/REarth

Two-line elements (TLE)

Creation date: July 18, 2025, 2:44 a.m.

Reference frame: TEME

Reference center: EARTH

Epoch: July 17, 2025, 10 p.m. UTC

TLE line 0: 0 STARLINK-34410

TLE line 1: 1 64440U 25130C 25198.91667824 -.00006280 00000-0 -14719-3 0 9990

TLE line 2: 2 64440 53.1602 105.8229 0000849 74.5130 252.6848 15.39613696 5981

Live tracking on map

Real-time ground track for satellite STARLINK-34410.

In-orbit conjunctions

There are no conjunctions computed for STARLINK-34410, at the moment. Check back to stay up to date, as we update our databases every day.

Go to all conjunctions

Associated space launch

A batch of 28 satellites for the Starlink mega-constellation - SpaceX's project for space-based Internet communication system.

STARLINK-34410 was lifted into orbit during the mission ‘Falcon 9 Block 5 | Starlink Group 10-18’, on board a Falcon 9 space rocket.

The launch took place on June 18, 2025, 5:55 a.m. from Space Launch Complex 40.

For more information about the launch, click the button.

Launch to space Falcon 9 Block 5 | Starlink Group 10-18
Falcon 9 Block 5 | Starlink Group 10-18

Agency: SpaceX

Status: Launch Successful

Launch date: June 18, 2025, 5:55 a.m. UTC

Rocket: Falcon 9

Launch pad: Space Launch Complex 40

Location: Cape Canaveral SFS, FL, USA

...

Latest news about this satellite

News about space launch
Live coverage: SpaceX to launch 28 Starlink satellites on Falcon 9 rocket from Cape Canaveral

The Starlink 10-18 mission will be SpaceX’s 75th Falcon 9 launch of 2025. It’s targeting liftoff from pad 40 at Cape Canaveral Space Force Station at 1:55 a.m. EDT (0555 UTC).


Newsletter sign-up

Weekly statistics, charts and insights to help you stay on top of the space industry.